Wind_Speed
29 28 27 27 27 27 28 28 28 27 26 24 23 22 20 19 18 19 19 18 18 17 17 17 17 16 17 16 17 17 17 17 17 16 16 17 16 16 16 15 15 15 16 16
32 30 29 28 27 27 28 28 28 27 27 25 24 24 23 22 22 22 22 21 20 20 19 19 19 18 18 18 19 19 18 18 18 18 18 18 18 17 17 17 17 16 16 17
33 32 31 31 31 30 29 28 28 27 25 25 25 25 27 26 24 24 22 22 23 22 19 20 20 19 19 20 21 20 19 19 19 19 19 20 19 18 18 18 18 18 18 18
33 33 34 32 31 30 30 30 29 29 27 26 26 25 26 27 25 24 25 24 23 23 21 20 20 21 21 21 21 20 19 19 19 20 21 21 20 20 19 19 19 19 19 19
33 34 35 33 31 29 29 29 30 30 29 27 26 26 27 27 27 27 26 25 23 22 22 21 21 21 22 23 22 22 21 21 22 22 22 22 21 21 21 21 20 20 20 20
34 34 34 33 31 30 30 30 29 30 29 29 29 29 28 28 29 29 28 27 25 23 22 22 21 21 22 23 22 22 22 22 22 23 23 23 23 22 21 22 21 22 22 22
34 34 34 34 32 31 31 31 30 30 31 30 31 30 29 30 29 28 27 26 25 24 23 23 21 21 22 22 22 22 22 23 23 24 24 24 24 23 23 23 23 22 22 22
33 34 35 34 34 34 33 33 32 32 32 32 32 31 30 29 29 28 28 26 25 25 25 24 24 23 24 23 23 22 22 23 24 24 24 24 23 24 24 24 23 22 23 23
33 34 34 35 35 35 35 35 34 34 34 34 34 33 32 32 31 30 29 28 28 27 27 26 26 25 24 24 23 23 23 24 24 25 25 24 24 24 24 24 24 24 25 25
34 35 35 35 36 36 36 36 35 35 35 35 35 34 34 34 34 32 30 30 30 29 29 28 27 26 25 25 24 23 24 24 25 26 26 26 25 25 25 26 26 26 26 26
35 35 35 35 35 36 37 37 37 36 36 37 37 36 35 35 34 33 32 32 32 31 31 30 29 29 28 27 26 26 26 26 26 26 26 26 26 26 26 26 27 27 26 25
34 35 36 36 36 37 38 39 38 37 37 37 37 37 36 36 35 34 34 33 33 33 32 31 31 31 31 30 29 28 28 29 28 28 28 28 28 27 26 27 27 26 26 25
34 35 36 37 37 38 39 39 39 38 38 37 37 37 36 36 36 36 35 35 34 34 33 33 32 32 32 31 31 30 30 30 30 30 29 29 29 28 28 27 27 27 26 26
34 35 36 36 37 38 38 38 38 38 38 37 37 37 37 37 37 36 35 36 36 35 34 33 32 33 33 32 32 32 31 31 31 31 30 29 29 28 27 26 26 27 27 28
34 35 36 35 36 36 37 38 38 38 38 39 39 38 37 37 36 36 36 36 37 36 35 34 34 34 34 34 33 33 33 32 31 32 31 30 29 29 28 28 28 28 29 29
35 35 35 36 36 37 37 37 37 38 38 39 39 39 38 37 36 36 36 35 35 35 35 35 35 35 35 33 32 32 32 32 32 31 30 29 30 29 29 30 30 30 29 28
34 34 33 34 35 36 37 38 38 37 37 37 38 38 38 37 38 37 37 36 35 35 35 34 34 34 33 33 32 31 32 32 32 31 30 29 29 30 29 30 30 30 29 28
31 32 33 32 33 34 36 36 37 37 36 36 36 37 36 36 36 36 37 37 35 35 34 34 34 33 33 32 32 32 32 31 31 31 31 30 30 30 30 30 29 29 29 28
28 29 29 29 30 31 32 33 34 34 34 35 34 34 34 35 34 34 35 35 35 34 34 34 34 33 32 32 32 32 32 32 32 32 31 30 30 30 30 29 29 29 29 28
25 26 27 27 28 29 29 31 32 32 31 32 32 33 33 33 33 33 34 33 32 32 32 32 31 32 31 32 32 32 32 32 32 31 31 31 30 30 29 29 29 29 29 30
23 24 25 25 26 26 26 27 29 30 31 31 30 31 31 31 32 33 32 31 30 30 30 30 30 30 31 31 31 31 31 31 32 32 31 30 30 30 30 30 30 29 29 29
21 22 23 23 24 24 24 24 26 27 29 29 29 30 30 29 29 30 29 28 28 28 28 28 28 28 29 30 30 30 30 30 31 30 30 30 30 30 31 30 29 29 29 28
19 19 19 20 21 22 22 23 23 24 26 26 26 26 27 28 27 26 26 27 27 27 27 27 27 27 28 28 28 29 29 29 29 29 30 29 29 29 29 29 29 29 28 28
19 18 18 18 19 20 20 20 21 22 23 24 24 24 24 24 24 24 24 26 26 27 27 27 27 27 27 27 28 28 28 28 28 29 29 28 28 28 29 29 29 29 28 28
17 18 17 17 17 18 19 19 19 19 20 20 21 23 23 24 24 23 24 24 25 25 25 25 25 25 26 26 26 26 27 27 27 27 27 26 27 27 27 28 28 28 28 28
15 15 16 16 16 16 16 17 18 18 18 19 19 20 20 21 22 22 22 22 23 23 23 23 23 23 24 25 25 25 25 25 26 26 26 26 26 26 26 27 27 28 28 28
14 13 14 15 15 14 15 16 17 17 17 18 18 18 18 18 18 19 19 19 20 20 20 21 21 22 23 23 24 23 24 24 24 25 25 25 25 25 25 26 26 27 27 27
Wind_Direction
241 241 240 240 240 244 249 252 257 259 261 267 268 271 272 272 277 279 279 278 276 272 271 275 277 276 271 271 271 270 271 271 273 278 282 286 287 289 291 293 292 294 296 293
241 242 242 241 240 243 248 254 258 260 261 263 268 265 268 272 273 276 281 280 279 278 275 277 278 277 273 273 274 270 269 269 270 275 279 283 284 284 286 287 286 288 292 293
242 243 246 244 242 244 248 252 256 257 260 258 262 266 265 268 271 273 277 280 280 276 275 279 277 273 271 271 270 270 268 270 269 271 277 280 280 280 282 283 283 285 287 289
244 243 245 245 245 248 248 251 253 255 258 259 260 261 262 265 267 271 273 276 278 278 277 279 274 271 269 272 267 263 266 270 271 275 279 280 280 279 278 279 281 284 286 289
247 246 245 243 245 249 248 250 252 254 254 256 258 260 263 266 268 271 273 275 276 277 277 277 275 273 269 267 265 264 266 270 274 277 278 279 280 278 278 278 280 282 284 287
246 247 247 245 243 248 250 250 252 254 254 256 259 260 261 265 268 271 270 272 275 278 276 275 276 272 267 267 265 264 267 270 272 274 276 276 277 277 277 277 279 282 285 287
246 247 247 246 244 246 248 250 251 253 255 256 259 262 262 262 265 269 270 270 272 275 278 277 275 270 269 269 269 268 269 270 272 274 276 276 275 275 274 276 278 281 286 288
245 246 246 247 247 247 249 250 251 253 255 257 261 264 264 265 266 268 267 268 270 272 274 274 272 269 267 269 273 271 268 269 272 275 276 276 276 276 275 275 276 280 284 288
246 247 247 248 249 249 250 252 253 255 255 258 261 262 263 264 266 268 265 266 269 270 270 269 269 269 268 268 269 269 267 268 270 273 274 275 274 275 275 276 278 280 283 286
246 246 247 248 249 251 253 254 256 256 256 257 259 260 261 263 264 265 266 265 267 267 266 266 266 267 267 266 268 267 266 268 269 271 273 274 273 273 274 276 278 280 282 284
247 248 248 248 250 252 254 256 256 256 258 258 259 260 261 261 263 264 265 265 265 265 265 266 267 267 266 265 266 266 266 268 270 271 271 272 271 272 273 275 278 280 280 283
249 248 249 249 251 254 256 256 256 257 258 259 259 260 260 260 259 261 261 262 264 265 265 266 267 267 267 267 267 265 266 266 268 269 271 272 271 272 273 274 277 278 281 284
250 249 249 250 252 254 255 256 257 257 257 257 256 256 258 258 259 260 260 262 263 263 263 264 264 265 265 265 263 263 264 265 267 266 267 269 270 270 273 274 275 278 280 283
251 250 250 251 253 254 255 255 256 257 258 257 256 256 256 256 257 258 259 260 262 262 263 263 264 262 261 263 264 263 263 263 264 265 265 267 268 270 273 275 276 278 280 282
254 253 252 252 253 254 255 256 257 257 258 257 256 256 256 256 257 258 259 260 261 262 262 261 263 263 261 265 264 263 264 266 265 265 267 269 270 271 271 273 275 277 278 281
254 253 253 254 255 254 255 257 258 258 258 257 256 255 255 255 256 257 259 260 261 261 262 262 263 263 263 264 265 265 266 268 270 269 267 270 271 271 272 274 275 277 277 279
255 254 254 255 255 254 254 256 257 258 257 257 257 257 256 255 255 256 256 258 260 261 262 263 263 262 262 263 264 265 265 266 269 269 268 270 271 272 274 275 275 276 276 279
257 256 257 258 257 254 254 254 255 256 256 257 257 256 256 256 256 256 255 256 258 259 260 262 261 260 261 261 262 263 265 266 268 269 268 268 269 271 273 274 275 276 277 279
260 259 259 260 258 255 255 254 254 255 256 257 257 256 256 256 257 256 256 257 257 257 259 261 261 261 260 260 260 262 264 266 266 268 267 267 268 270 272 273 275 277 278 279
262 261 262 261 259 259 257 255 253 254 255 255 256 256 256 257 256 257 258 258 258 257 257 258 259 258 258 259 260 261 263 264 265 266 266 267 268 269 271 272 275 277 279 280
262 262 262 261 257 256 256 255 253 252 253 255 255 255 258 259 258 257 257 258 259 259 258 259 259 260 259 260 261 262 262 264 265 266 266 266 267 268 270 272 274 275 276 278
267 264 262 260 258 255 255 256 255 254 254 256 258 259 259 260 258 256 257 258 258 258 258 259 260 260 260 260 260 261 262 265 266 266 266 267 268 269 270 271 271 272 274 277
268 266 266 265 265 261 258 257 256 256 255 257 259 261 260 259 258 257 257 256 256 256 256 258 259 259 260 260 260 260 261 263 264 265 267 267 268 270 271 270 270 271 273 275
266 265 265 266 265 264 262 260 260 258 257 258 258 259 260 258 256 257 257 255 254 253 254 256 258 259 260 260 260 260 261 262 264 266 267 267 269 271 271 270 269 269 270 272
267 264 264 265 264 263 261 260 260 258 256 257 258 259 261 260 258 257 257 256 254 254 256 257 258 259 259 260 260 260 261 263 265 266 267 268 270 272 272 271 269 268 268 269
269 266 264 266 265 263 260 259 257 256 257 258 260 260 259 257 257 256 255 254 254 256 257 256 258 259 260 260 259 259 262 264 266 267 268 269 271 272 271 270 270 268 267 267
269 267 265 267 268 266 266 264 260 259 258 260 259 259 259 258 258 255 255 255 255 255 254 255 257 259 260 259 259 261 263 264 266 266 266 268 270 271 272 271 269 268 267 267
Height
5858 5860 5861 5863 5864 5866 5867 5867 5868 5870 5871 5872 5872 5873 5873 5874 5874 5875 5875 5876 5876 5876 5877 5877 5877 5877 5877 5877 5877 5877 5877 5877 5876 5876 5875 5874 5873 5872 5871 5870 5868 5867 5866 5864
5851 5854 5855 5856 5858 5859 5860 5861 5862 5863 5865 5866 5866 5867 5868 5869 5869 5870 5870 5870 5871 5872 5872 5872 5871 5872 5872 5871 5872 5872 5872 5871 5871 5870 5870 5869 5868 5867 5866 5865 5863 5862 5861 5860
5844 5846 5848 5850 5852 5853 5854 5855 5856 5857 5859 5859 5860 5861 5862 5863 5864 5865 5865 5865 5865 5866 5867 5867 5867 5867 5866 5866 5866 5866 5865 5865 5865 5865 5864 5863 5862 5861 5860 5859 5858 5857 5856 5855
5835 5839 5840 5845 5845 5846 5847 5847 5848 5850 5852 5853 5854 5855 5856 5857 5858 5859 5859 5859 5860 5860 5860 5861 5860 5860 5860 5860 5859 5859 5859 5859 5859 5859 5858 5857 5856 5856 5855 5853 5852 5851 5850 5849
5827 5829 5831 5835 5837 5838 5839 5840 5841 5843 5844 5845 5847 5848 5849 5849 5851 5852 5852 5853 5853 5853 5853 5854 5854 5854 5854 5854 5853 5853 5853 5853 5853 5853 5852 5851 5850 5849 5848 5847 5846 5845 5844 5843
5818 5820 5822 5827 5829 5830 5832 5832 5834 5835 5836 5838 5839 5841 5842 5843 5843 5844 5845 5845 5845 5846 5846 5846 5847 5847 5847 5847 5847 5847 5846 5846 5846 5846 5845 5845 5844 5843 5842 5841 5840 5839 5838 5836
5809 5810 5813 5817 5820 5822 5824 5825 5826 5827 5828 5830 5831 5833 5834 5835 5836 5836 5837 5837 5838 5838 5838 5839 5840 5840 5841 5841 5841 5841 5841 5840 5840 5839 5839 5838 5837 5836 5835 5834 5834 5833 5831 5830
5800 5802 5806 5807 5810 5812 5814 5816 5817 5819 5820 5821 5822 5823 5824 5826 5827 5829 5829 5830 5830 5830 5831 5832 5832 5833 5833 5833 5834 5833 5833 5833 5833 5832 5831 5831 5830 5829 5828 5827 5827 5826 5824 5823
5792 5795 5796 5798 5800 5802 5804 5806 5808 5810 5812 5813 5814 5815 5816 5817 5819 5821 5821 5822 5822 5823 5824 5824 5825 5825 5826 5826 5826 5826 5826 5826 5826 5825 5824 5823 5823 5822 5821 5820 5819 5819 5817 5816
5782 5784 5786 5788 5790 5793 5795 5797 5799 5801 5803 5804 5806 5807 5808 5809 5810 5812 5813 5813 5814 5815 5815 5816 5816 5817 5818 5818 5818 5818 5818 5818 5818 5817 5816 5816 5815 5814 5814 5813 5812 5812 5811 5809
5772 5775 5777 5779 5781 5783 5785 5787 5789 5791 5793 5794 5796 5798 5799 5800 5801 5803 5804 5804 5805 5806 5807 5807 5808 5809 5809 5809 5809 5810 5810 5810 5810 5809 5809 5808 5807 5807 5806 5805 5805 5804 5803 5801
5763 5765 5767 5769 5771 5773 5775 5776 5778 5780 5782 5784 5785 5787 5789 5790 5791 5793 5794 5795 5796 5797 5798 5798 5799 5799 5800 5800 5800 5801 5801 5801 5801 5800 5800 5800 5800 5799 5798 5797 5796 5795 5795 5794
5753 5755 5756 5758 5760 5762 5764 5766 5767 5769 5771 5773 5774 5775 5777 5779 5781 5782 5784 5785 5786 5787 5788 5789 5789 5790 5789 5790 5790 5791 5791 5791 5792 5792 5792 5792 5791 5791 5790 5789 5788 5788 5787 5786
5742 5744 5746 5748 5749 5751 5752 5754 5756 5757 5758 5760 5762 5764 5766 5768 5770 5771 5773 5774 5775 5776 5777 5778 5779 5779 5779 5779 5780 5780 5780 5781 5781 5782 5782 5782 5782 5782 5782 5782 5781 5779 5779 5777
5732 5733 5734 5736 5738 5740 5741 5742 5744 5745 5747 5748 5750 5751 5754 5756 5758 5760 5762 5763 5764 5765 5767 5768 5769 5769 5769 5768 5769 5770 5770 5771 5771 5772 5773 5773 5773 5773 5774 5773 5772 5771 5770 5769
5721 5722 5723 5725 5726 5728 5730 5731 5732 5733 5734 5736 5738 5739 5741 5744 5746 5748 5750 5751 5753 5754 5756 5757 5758 5759 5758 5759 5760 5761 5762 5762 5763 5763 5764 5764 5764 5764 5765 5765 5764 5762 5762 5761
5710 5711 5713 5714 5715 5716 5718 5719 5720 5721 5723 5725 5726 5728 5730 5732 5735 5737 5739 5740 5742 5743 5745 5746 5747 5747 5748 5749 5750 5751 5752 5753 5754 5755 5755 5755 5755 5755 5756 5755 5755 5754 5753 5752
5699 5701 5702 5703 5703 5704 5706 5707 5709 5710 5712 5714 5715 5716 5718 5721 5723 5725 5728 5729 5731 5732 5734 5735 5736 5737 5738 5739 5740 5741 5742 5743 5744 5745 5745 5746 5746 5746 5746 5746 5745 5745 5744 5743
5690 5691 5691 5692 5693 5693 5695 5696 5698 5700 5702 5703 5705 5706 5708 5711 5712 5714 5716 5718 5720 5722 5724 5724 5725 5727 5728 5729 5730 5732 5732 5733 5734 5735 5735 5736 5736 5736 5736 5736 5736 5736 5735 5734
5681 5682 5682 5683 5684 5684 5685 5687 5688 5690 5692 5693 5695 5697 5698 5700 5702 5704 5706 5708 5709 5711 5713 5714 5715 5716 5717 5719 5720 5722 5723 5723 5724 5725 5725 5726 5726 5727 5727 5727 5727 5726 5726 5725
5673 5674 5674 5674 5675 5676 5677 5678 5679 5681 5682 5683 5685 5687 5688 5690 5692 5694 5696 5698 5700 5701 5702 5703 5705 5706 5707 5708 5710 5711 5712 5713 5714 5714 5715 5716 5716 5716 5717 5717 5717 5716 5715 5715
5665 5666 5666 5666 5667 5668 5669 5669 5670 5672 5673 5674 5676 5677 5679 5681 5682 5684 5686 5688 5690 5691 5692 5694 5695 5696 5697 5698 5699 5701 5702 5703 5704 5704 5705 5705 5706 5706 5706 5706 5706 5706 5706 5705
5658 5659 5659 5659 5660 5660 5661 5662 5662 5663 5664 5666 5667 5669 5670 5672 5673 5675 5677 5679 5680 5682 5683 5684 5686 5687 5687 5688 5689 5691 5692 5693 5694 5694 5695 5695 5695 5695 5695 5696 5696 5696 5696 5695
5652 5653 5653 5654 5654 5654 5655 5655 5656 5656 5657 5658 5659 5661 5662 5663 5665 5666 5668 5669 5671 5673 5674 5675 5676 5677 5678 5679 5680 5681 5682 5682 5683 5684 5684 5684 5685 5685 5685 5685 5686 5686 5686 5686
5646 5647 5647 5648 5648 5648 5649 5649 5649 5650 5650 5651 5653 5654 5655 5656 5658 5659 5660 5661 5662 5663 5664 5665 5667 5668 5669 5670 5671 5671 5672 5673 5674 5674 5675 5675 5675 5675 5675 5675 5675 5675 5676 5676
5640 5641 5642 5642 5642 5643 5643 5643 5643 5644 5644 5645 5647 5647 5648 5649 5650 5651 5652 5653 5654 5655 5656 5657 5658 5659 5661 5661 5662 5663 5663 5664 5664 5665 5665 5666 5666 5666 5666 5666 5665 5665 5665 5666
5636 5636 5637 5637 5637 5637 5638 5638 5638 5638 5639 5640 5641 5641 5642 5643 5643 5644 5645 5646 5647 5647 5649 5650 5651 5652 5652 5653 5653 5654 5654 5654 5655 5655 5656 5656 5656 5656 5656 5656 5656 5656 5656 5656